• In Hungary
  • List of Countries
  • For 7 days
  • Water Temperature
  • Satellite Maps
  • Weather Map
  • News
  • Weather Widgets
  • user-avatar
    Login

    Hourly Weather Djaipur

    Today, 20 September, Wednesday

    Time Temperature Precipitation Wind Pressure Humidity
    00:00 +30°C° 0 mm 2 mps 719 mmHg 36%
    01:00 +29°C° 0 mm 2 mps 719 mmHg 38%
    02:00 +29°C° 0 mm 2 mps 719 mmHg 40%
    03:00 +29°C° 0 mm 2 mps 719 mmHg 42%
    04:00 +28°C° 0 mm 2 mps 719 mmHg 44%
    05:00 +27°C° 0 mm 1 mps 719 mmHg 54%
    06:00 +29°C° 0 mm 1 mps 719 mmHg 53%
    07:00 +30°C° 0 mm 1 mps 719 mmHg 51%
    08:00 +32°C° 0 mm 1 mps 720 mmHg 49%
    09:00 +34°C° 0 mm 1 mps 720 mmHg 42%
    10:00 +36°C° 0 mm 2 mps 720 mmHg 34%
    11:00 +37°C° 0 mm 1 mps 720 mmHg 28%
    12:00 +39°C° 0 mm 2 mps 719 mmHg 25%
    13:00 +39°C° 0 mm 2 mps 719 mmHg 22%
    14:00 +40°C° 0 mm 3 mps 718 mmHg 19%
    15:00 +40°C° 0 mm 2 mps 718 mmHg 21%
    16:00 +39°C° 0 mm 2 mps 718 mmHg 22%
    17:00 +38°C° 0 mm 2 mps 718 mmHg 23%
    18:00 +36°C° 0 mm 2 mps 718 mmHg 25%
    19:00 +35°C° 0 mm 2 mps 718 mmHg 27%
    20:00 +34°C° 0 mm 2 mps 718 mmHg 28%
    21:00 +32°C° 0 mm 2 mps 718 mmHg 31%
    22:00 +31°C° 0 mm 2 mps 719 mmHg 33%
    23:00 +31°C° 0 mm 2 mps 719 mmHg 36%

    Tomorrow, 21 September, Thursday

    Time Temperature Precipitation Wind Pressure Humidity
    00:00 +31°C° 0 mm 2 mps 718 mmHg 41%
    01:00 +30°C° 0 mm 2 mps 718 mmHg 46%
    02:00 +30°C° 0 mm 2 mps 718 mmHg 51%
    03:00 +29°C° 0 mm 1 mps 718 mmHg 57%
    04:00 +29°C° 0 mm 1 mps 718 mmHg 63%
    05:00 +28°C° 0 mm 1 mps 718 mmHg 68%
    06:00 +30°C° 0 mm 1 mps 719 mmHg 65%
    07:00 +31°C° 0 mm 1 mps 719 mmHg 62%
    08:00 +30°C° 0 mm 0 mps 720 mmHg 59%
    09:00 +33°C° 0 mm 1 mps 720 mmHg 50%
    10:00 +36°C° 0 mm 2 mps 720 mmHg 42%
    11:00 +38°C° 0 mm 2 mps 720 mmHg 34%
    12:00 +38°C° 0 mm 2 mps 719 mmHg 31%
    13:00 +39°C° 0 mm 2 mps 719 mmHg 28%
    14:00 +40°C° 0 mm 3 mps 718 mmHg 25%
    15:00 +39°C° 0 mm 3 mps 718 mmHg 27%
    16:00 +39°C° 0 mm 3 mps 718 mmHg 29%
    17:00 +38°C° 0 mm 2 mps 718 mmHg 31%
    18:00 +37°C° 0 mm 3 mps 718 mmHg 37%
    19:00 +35°C° 0 mm 4 mps 718 mmHg 44%
    20:00 +33°C° 0 mm 4 mps 719 mmHg 50%
    21:00 +32°C° 0 mm 4 mps 719 mmHg 57%
    22:00 +32°C° 0 mm 4 mps 719 mmHg 64%
    23:00 +30°C° 0 mm 4 mps 719 mmHg 71%

    Day after tomorrow, 22 September, Friday

    Time Temperature Precipitation Wind Pressure Humidity
    00:00 +29°C° 0.3 mm 4 mps 719 mmHg 73%
    01:00 +28°C° 0.3 mm 3 mps 719 mmHg 76%
    02:00 +28°C° 0.3 mm 2 mps 719 mmHg 78%
    03:00 +27°C° 0 mm 2 mps 719 mmHg 79%
    04:00 +27°C° 0 mm 2 mps 719 mmHg 81%
    05:00 +27°C° 0 mm 1 mps 719 mmHg 82%
    06:00 +28°C° 0 mm 1 mps 719 mmHg 78%
    07:00 +28°C° 0 mm 2 mps 720 mmHg 74%
    08:00 +29°C° 0 mm 2 mps 720 mmHg 70%
    09:00 +31°C° 0 mm 2 mps 721 mmHg 63%
    10:00 +32°C° 0 mm 1 mps 721 mmHg 55%
    11:00 +34°C° 0 mm 1 mps 721 mmHg 48%
    12:00 +36°C° 0 mm 2 mps 720 mmHg 42%
    13:00 +37°C° 0 mm 3 mps 720 mmHg 36%
    14:00 +38°C° 0 mm 3 mps 719 mmHg 31%
    15:00 +38°C° 0 mm 3 mps 719 mmHg 33%
    16:00 +37°C° 0 mm 4 mps 719 mmHg 36%
    17:00 +36°C° 0 mm 4 mps 719 mmHg 38%
    18:00 +34°C° 0.1 mm 4 mps 719 mmHg 48%
    19:00 +33°C° 0.1 mm 4 mps 720 mmHg 57%
    20:00 +30°C° 0.1 mm 4 mps 720 mmHg 66%
    21:00 +29°C° 0 mm 4 mps 720 mmHg 69%
    22:00 +29°C° 0 mm 3 mps 720 mmHg 72%
    23:00 +28°C° 0 mm 2 mps 720 mmHg 74%

    23 September, Saturday

    Time Temperature Precipitation Wind Pressure Humidity
    00:00 +28°C° 0 mm 2 mps 720 mmHg 74%
    01:00 +28°C° 0 mm 1 mps 720 mmHg 75%
    02:00 +28°C° 0 mm 1 mps 720 mmHg 75%
    03:00 +28°C° 0 mm 1 mps 720 mmHg 73%
    04:00 +28°C° 0 mm 1 mps 720 mmHg 72%
    05:00 +28°C° 0 mm 1 mps 720 mmHg 70%
    06:00 +28°C° 0.1 mm 2 mps 720 mmHg 67%
    07:00 +28°C° 0.1 mm 2 mps 721 mmHg 64%
    08:00 +29°C° 0.1 mm 3 mps 722 mmHg 61%
    09:00 +29°C° 0 mm 3 mps 722 mmHg 58%
    10:00 +30°C° 0 mm 4 mps 722 mmHg 55%
    11:00 +32°C° 0 mm 4 mps 722 mmHg 53%
    12:00 +33°C° 0 mm 5 mps 721 mmHg 47%
    13:00 +35°C° 0 mm 5 mps 721 mmHg 42%
    14:00 +36°C° 0 mm 5 mps 720 mmHg 36%
    15:00 +36°C° 0 mm 4 mps 720 mmHg 37%
    16:00 +35°C° 0 mm 4 mps 720 mmHg 38%
    17:00 +35°C° 0 mm 3 mps 720 mmHg 38%
    18:00 +34°C° 0 mm 3 mps 720 mmHg 42%
    19:00 +31°C° 0 mm 3 mps 720 mmHg 47%
    20:00 +30°C° 0 mm 3 mps 721 mmHg 51%
    21:00 +29°C° 0 mm 2 mps 721 mmHg 58%
    22:00 +28°C° 0 mm 2 mps 721 mmHg 64%
    23:00 +28°C° 0 mm 1 mps 721 mmHg 71%

    24 September, Sunday

    Time Temperature Precipitation Wind Pressure Humidity
    00:00 +27°C° 0 mm 1 mps 721 mmHg 74%
    01:00 +27°C° 0 mm 1 mps 720 mmHg 77%
    02:00 +26°C° 0 mm 1 mps 720 mmHg 80%
    03:00 +26°C° 0 mm 1 mps 720 mmHg 78%
    04:00 +26°C° 0 mm 1 mps 720 mmHg 77%
    05:00 +26°C° 0 mm 2 mps 720 mmHg 75%
    06:00 +28°C° 0 mm 3 mps 721 mmHg 66%
    07:00 +29°C° 0 mm 4 mps 721 mmHg 57%
    08:00 +30°C° 0 mm 5 mps 722 mmHg 48%
    09:00 +33°C° 0 mm 5 mps 722 mmHg 41%
    10:00 +36°C° 0 mm 6 mps 722 mmHg 34%
    11:00 +39°C° 0 mm 6 mps 722 mmHg 28%
    12:00 +40°C° 0 mm 6 mps 721 mmHg 25%
    13:00 +41°C° 0 mm 6 mps 721 mmHg 23%
    14:00 +41°C° 0 mm 6 mps 720 mmHg 21%
    15:00 +41°C° 0 mm 6 mps 720 mmHg 23%
    16:00 +40°C° 0 mm 5 mps 720 mmHg 24%
    17:00 +38°C° 0 mm 4 mps 720 mmHg 25%
    18:00 +36°C° 0 mm 3 mps 720 mmHg 27%
    19:00 +35°C° 0 mm 3 mps 720 mmHg 30%
    20:00 +32°C° 0 mm 2 mps 720 mmHg 32%
    21:00 +31°C° 0 mm 2 mps 720 mmHg 36%
    22:00 +30°C° 0 mm 1 mps 720 mmHg 40%
    23:00 +29°C° 0 mm 1 mps 720 mmHg 44%

    25 September, Monday

    Time Temperature Precipitation Wind Pressure Humidity
    00:00 +29°C° 0 mm 1 mps 720 mmHg 43%
    01:00 +29°C° 0 mm 2 mps 720 mmHg 42%
    02:00 +29°C° 0 mm 2 mps 719 mmHg 41%
    03:00 +28°C° 0 mm 3 mps 720 mmHg 42%
    04:00 +28°C° 0 mm 3 mps 720 mmHg 43%
    05:00 +27°C° 0 mm 4 mps 720 mmHg 45%
    06:00 +28°C° 0 mm 5 mps 720 mmHg 44%
    07:00 +30°C° 0 mm 5 mps 721 mmHg 42%
    08:00 +32°C° 0 mm 6 mps 721 mmHg 41%
    09:00 +34°C° 0 mm 6 mps 721 mmHg 36%
    10:00 +36°C° 0 mm 6 mps 722 mmHg 31%
    11:00 +39°C° 0 mm 7 mps 722 mmHg 26%
    12:00 +40°C° 0 mm 6 mps 721 mmHg 24%
    13:00 +41°C° 0 mm 6 mps 720 mmHg 21%
    14:00 +42°C° 0 mm 6 mps 720 mmHg 19%
    15:00 +41°C° 0 mm 5 mps 719 mmHg 20%
    16:00 +40°C° 0 mm 4 mps 719 mmHg 22%
    17:00 +38°C° 0 mm 4 mps 719 mmHg 23%
    18:00 +37°C° 0 mm 4 mps 719 mmHg 25%
    19:00 +35°C° 0 mm 4 mps 719 mmHg 27%
    20:00 +34°C° 0 mm 4 mps 720 mmHg 29%
    21:00 +33°C° 0 mm 4 mps 720 mmHg 30%
    22:00 +33°C° 0 mm 5 mps 720 mmHg 31%
    23:00 +32°C° 0 mm 5 mps 720 mmHg 33%
    Show more